Find Starlink 33565

NORAD ID: 62288 Int'l Des: 2024-237 Owner: SPXS Country: US Constellation: starlink operational
LEOCIRCULAR

当前视图

正在加载3D地球...

关于 Starlink 33565

正在加载描述...

即将过境

Passes for default location (London). Set your location on the main map for personalized predictions.

高度历史

Loading altitude history...

两行轨道根数

1 62288U 24237X 26149.25289638 .00026887 00000-0 98165-3 0 9992
2 62288 42.9977 110.0802 0000797 228.9599 131.1184 15.27625896 83646
Epoch: May 29, 2026 • Age: 30 hours

当前状态

高度 486.2 km
速度 7.63 km/s
星下点 42.33°N, 107.76°E
发射日期 Dec 8, 2024
运行时间 1.4 years
类型 internet

技术详情

分类 Payload
质量 530.00 kg
干质量 500.00 kg
总质量 530.00 kg
长度 0.30 m
直径 4.10 m
跨度 29.00 m
形状 Box + pan
制造商 SPXS
平台类型 Starlink V2MO
阶段状态 In Orbit
所有者/国家 SPXS/US

Most Searched